Frank Pais International Airport
MUHG : now visible

Airfield :











YOU CAN JOIN US ON...

 
LOGIN :

Register | Disclaimer

   EN    FR    IT 

 









Legend :    VFR   Marginal VFR   IFR   Intensive IFR   Very Intensive IFR
Visi :
Ceiling :
>= 8 km
>= 3000ft
5 to 8 km
1000 to 3000 ft
1500m to 5 km
500 to 1000 ft
800 to 1500m
200 to 500 ft
< 800m
< 200 ft
Symbols :   Thunderstorms  Fog  Heavy snow  Heavy precipitations  Wind > 20 kt






- Airport Elevation : 361 ft
- IATA code : HOG


MUHG - Frank Pais International

CURRENT METAR :
  • 180550Z 08011KT 9000 SKC 24/21 Q1017

EXPIRED METARs :
  • 180450Z 08009KT 9000 SKC 25/22 Q1017
  • 180350Z 08010KT 9000 SKC 25/22 Q1018

TAF MUHG
Valid from the 18 at 06:00 until the 19 at 06:00 UTC


180500Z 1806/1906 07008KT 9000 SCT020
BECMG 1903/1905 VRB03KT



MET'MAP, your aeronautical weather chart ! - Copyright ORBIFLY December 2007 - Disclaimer

ORBIFLY MET'MAP TEAM :

Programming & Development : Alexandra Zaïnal
Concept & original design : Baudouin d'Aumeries
Assistance for programming : Marc-Olivier Méhu
Technical & hardware support : Manuel Goepfert

Contact : metmap@orbifly.com




SOURCES & CREDITS :

   NOAA       Earth
Advisory